ABS-2A (MONGOLSAT-1)

Last updated on Sun Apr 12 2026 00:02:54 GMT+0000 (Coordinated Universal Time)

1 41588U 16038A 26101.39279648 .00000000 00000+0 00000+0 0 9990 2 41588 0.0193 203.8687 0001548 127.4925 84.3809 1.00268856 36033
UTC large
Height (km)
Speed (km/s)
/
Latitude / Longitude
Inclination (degrees)
Orbital Period (minutes)
Azimuth
Elevation
Range (km)
Doppler Factor

Next 0 passes for location: London (51.5072 / 0.1276)

Sorry there are no passes over London.
ABS-2A (MONGOLSAT-1)